Probability
0 0 0 0 0 0 0 0 0 0 0 0 0 0 0 0 0 0 0 0 0 0 1 2 1 0 0 0 0 0 0 0 0 0 0 0 0 0 0 0 0 0 0 0
0 0 0 0 0 0 0 0 0 0 0 0 0 0 0 0 0 0 0 0 0 0 1 2 1 0 0 0 0 0 0 0 0 0 0 0 0 0 0 0 0 0 0 0
0 0 0 0 0 0 0 0 0 0 0 0 0 0 0 0 0 0 0 0 0 0 1 1 1 0 0 0 0 0 0 0 0 0 0 0 0 0 0 0 0 0 0 0
0 0 0 0 0 0 0 0 0 0 0 0 0 0 0 0 0 0 0 0 0 0 0 0 0 0 0 0 0 0 0 0 0 0 0 0 0 0 0 0 0 0 0 0
0 0 0 0 0 0 0 0 0 0 0 0 0 0 0 0 0 0 0 0 0 0 0 0 0 0 0 0 0 0 0 0 0 0 0 0 0 0 0 0 0 0 0 0
0 0 0 0 0 0 0 0 0 0 0 0 0 0 0 0 0 0 0 0 0 0 0 0 0 0 0 0 0 0 0 0 0 0 0 0 0 0 0 0 0 0 0 0
0 0 0 0 0 0 0 0 0 0 0 0 0 0 0 0 0 0 0 0 0 0 0 0 0 0 0 0 0 0 0 0 0 0 0 0 0 0 0 0 0 0 0 0
0 0 0 0 0 0 0 0 0 0 0 0 0 0 0 0 0 0 0 0 0 0 0 0 0 0 0 0 0 0 0 0 0 0 0 0 0 0 0 0 0 0 0 0
0 0 0 0 0 0 0 0 0 0 0 0 0 0 0 0 0 0 0 0 0 0 0 0 0 0 0 0 0 0 0 0 0 0 0 0 0 0 0 0 0 0 0 0
0 0 0 0 0 0 0 0 0 0 0 0 0 0 0 0 0 0 0 0 0 0 0 0 0 0 0 0 0 0 0 0 0 0 0 0 0 0 0 0 0 0 0 0
0 0 0 0 0 0 0 0 0 0 0 0 0 0 0 0 0 0 0 0 0 0 0 0 0 0 0 0 0 0 0 0 0 0 0 0 0 0 0 0 0 0 0 0
0 0 0 0 0 0 0 0 0 0 0 0 0 0 0 0 0 0 0 0 0 0 0 0 0 0 0 0 0 0 0 0 0 0 0 0 0 0 0 0 0 0 0 0
0 0 0 0 0 0 0 0 0 0 0 0 0 0 0 0 0 0 0 0 0 0 0 0 0 0 0 0 0 0 0 0 0 0 0 0 0 0 0 0 0 0 0 0
0 0 0 0 0 0 0 0 0 0 0 0 0 0 0 0 0 0 0 0 0 0 0 0 0 0 0 0 0 0 0 0 0 0 0 0 0 0 0 0 0 0 0 0
0 0 0 0 0 0 0 0 0 0 0 0 0 0 0 0 0 0 0 0 0 0 0 0 0 0 0 0 0 0 0 0 0 0 0 0 0 0 0 0 0 0 0 0
0 0 0 0 0 0 0 0 0 0 0 0 0 0 0 0 0 0 0 0 0 0 0 0 0 0 0 0 0 0 0 0 0 0 0 0 0 0 0 0 0 0 0 0
0 0 0 0 0 0 0 0 0 0 0 0 0 0 0 0 0 0 0 0 0 0 0 0 0 0 0 0 0 0 0 0 0 0 0 0 0 0 0 0 0 0 0 0
0 0 0 0 0 0 0 0 0 0 0 0 0 0 0 0 0 0 0 0 0 0 0 0 0 0 0 0 0 0 0 0 0 0 0 0 0 0 0 0 0 0 0 0
0 0 0 0 0 0 0 0 0 0 0 0 0 0 0 0 0 0 0 0 0 0 0 0 0 0 0 0 0 0 0 0 0 0 0 0 0 0 0 0 0 0 0 0
0 0 0 0 0 0 0 0 0 0 0 0 0 0 0 0 0 0 0 0 0 0 0 0 0 0 0 0 0 0 0 0 0 0 0 0 0 0 0 0 0 0 0 0
0 0 0 0 0 0 0 0 0 0 0 0 0 0 0 0 0 0 0 0 0 0 0 0 0 0 0 0 0 0 0 0 0 0 0 0 0 0 0 0 0 0 0 0
0 0 0 0 0 0 0 0 0 0 0 0 0 0 0 0 0 0 0 0 0 0 0 0 0 0 0 0 0 0 0 0 0 0 0 0 0 0 0 0 0 0 0 0
0 0 0 0 0 0 0 0 0 0 0 0 0 0 0 0 0 0 0 0 0 0 0 0 0 0 0 0 0 0 0 0 0 0 0 0 0 0 0 0 0 0 0 0
0 0 0 0 0 0 0 0 0 0 0 0 0 0 0 0 0 0 0 0 0 0 0 0 0 0 0 0 0 0 0 0 0 0 0 0 0 0 0 0 0 0 0 0
0 0 0 0 0 0 0 0 0 0 0 0 0 0 0 0 0 0 0 0 0 0 0 0 0 0 0 0 0 0 0 0 0 0 0 0 0 0 0 0 0 0 0 0
0 0 0 0 0 0 0 0 0 0 0 0 0 0 0 0 0 0 0 0 0 0 0 0 0 0 0 0 0 0 0 0 0 0 0 0 0 0 0 0 0 0 0 0
0 0 0 0 0 0 0 0 0 0 0 0 0 0 0 0 0 0 0 0 0 0 0 0 0 0 0 0 0 0 0 0 0 0 0 0 0 0 0 0 0 0 0 0
Wind_Speed
6 6 4 6 8 7 8 8 8 10 10 12 7 6 5 4 3 3 2 2 2 2 2 2 1 1 1 1 2 2 2 3 3 3 3 2 2 3 3 3 3 3 4 3
5 5 5 7 9 9 9 9 9 9 12 9 5 4 4 4 3 3 4 3 3 3 3 3 2 2 2 2 2 2 2 3 3 2 2 2 2 2 2 2 2 2 3 4
4 4 3 8 9 9 7 7 8 11 12 6 4 5 6 5 5 5 4 4 4 3 4 4 3 3 3 3 2 2 2 3 3 3 3 3 2 2 2 3 2 2 3 4
1 1 6 9 3 6 7 8 8 7 7 5 6 6 5 4 5 4 4 4 4 3 3 3 3 3 2 2 2 2 2 2 3 3 3 2 2 3 3 2 3 3 3 4
2 3 8 8 3 3 5 7 6 7 6 5 3 2 3 3 4 4 4 4 4 3 3 3 3 3 2 1 1 2 2 3 3 3 3 2 2 3 2 2 2 3 3 3
3 3 7 7 3 2 1 6 4 5 6 4 1 2 5 3 2 3 3 2 3 2 2 2 3 2 2 2 2 3 3 3 3 3 4 4 3 3 2 2 3 2 3 3
6 6 9 7 3 2 3 7 3 4 5 4 5 6 4 3 3 2 2 2 2 2 2 3 3 2 3 3 3 3 2 2 2 3 3 3 3 2 2 2 2 2 2 3
5 6 10 4 3 5 7 3 2 3 3 4 5 4 4 3 2 2 1 1 1 1 2 2 2 3 3 4 3 2 2 2 2 2 2 2 2 2 2 3 2 2 2 2
9 9 5 4 6 5 3 3 3 3 4 3 4 4 4 3 2 2 2 2 1 2 2 2 1 2 4 3 2 2 2 2 2 2 2 2 3 2 2 2 2 2 2 3
5 7 6 5 4 3 3 4 4 4 4 4 4 5 4 3 3 2 2 2 2 1 2 2 2 2 3 3 2 2 2 2 2 2 2 2 2 2 3 3 3 3 3 3
6 6 5 5 5 5 4 4 4 4 3 3 3 4 4 3 3 3 2 2 2 2 2 3 3 2 2 2 2 2 2 2 2 2 2 2 2 3 3 4 4 4 4 3
8 7 5 6 4 3 3 4 4 3 4 3 3 4 3 3 3 3 2 2 2 2 3 3 2 2 2 2 2 3 2 2 2 2 2 2 2 2 3 4 5 6 5 5
7 5 5 5 4 3 4 4 4 4 4 4 3 3 3 3 3 3 3 2 3 3 3 3 2 2 2 2 2 3 3 3 2 2 2 2 2 2 2 2 3 4 5 5
4 2 3 4 4 4 4 3 3 3 3 3 3 2 2 3 3 3 3 3 3 3 3 2 2 2 2 1 2 2 3 3 3 2 2 2 2 2 2 2 1 2 3 5
5 4 5 4 3 3 3 2 2 3 3 3 2 2 2 3 3 4 3 2 2 2 2 1 2 3 2 1 2 2 2 2 2 2 2 2 2 2 2 2 2 2 1 2
4 3 2 2 3 3 3 2 3 4 3 3 3 3 3 3 3 3 2 1 1 2 2 1 2 3 1 1 1 2 2 3 3 2 2 2 2 2 2 2 2 2 2 2
3 3 3 4 4 4 4 4 4 4 3 3 3 2 2 1 2 2 2 2 2 2 2 2 3 2 2 1 2 2 2 2 3 2 2 2 2 2 2 2 2 2 2 3
5 5 5 5 5 4 4 3 2 3 3 3 2 1 1 2 2 2 2 2 1 2 2 2 2 2 2 2 2 2 2 2 2 2 2 2 2 2 2 2 2 2 2 2
3 3 3 3 2 3 3 3 3 2 2 1 1 2 2 2 2 2 1 1 1 2 3 2 3 1 1 2 1 1 1 1 1 1 1 2 2 1 1 2 2 2 1 1
2 2 1 1 1 1 2 2 2 1 1 1 1 1 1 2 1 1 1 2 2 2 3 3 2 1 1 2 1 1 1 2 2 2 1 1 2 1 1 1 1 1 1 1
2 1 1 1 2 2 1 1 1 1 1 1 1 2 2 2 1 1 1 2 2 2 2 3 1 1 1 1 1 1 1 1 1 2 2 1 1 1 1 1 1 1 1 1
1 1 1 1 1 2 2 1 1 1 1 1 1 1 1 1 1 1 2 2 2 3 1 1 1 1 1 1 0 1 1 1 1 1 1 1 2 2 1 1 1 1 1 1
1 1 1 2 2 2 2 1 1 1 1 1 1 1 1 1 1 1 2 1 1 2 1 1 1 2 1 1 1 1 1 1 1 1 1 1 1 2 2 2 1 1 1 1
1 1 1 1 1 0 1 2 1 1 1 1 1 1 1 1 1 1 1 2 2 2 1 1 1 1 2 1 1 1 1 1 1 1 1 1 1 1 1 1 1 1 1 1
1 1 1 0 1 1 1 1 1 1 0 0 1 1 0 1 1 1 1 1 1 1 1 1 2 2 1 1 0 1 1 1 1 1 1 1 1 1 1 1 1 1 1 1
1 1 1 1 1 1 1 0 0 1 0 0 1 1 1 1 0 0 0 1 1 1 1 1 1 1 1 0 0 0 0 1 0 0 1 1 1 1 1 1 2 1 1 1
1 1 1 1 1 1 0 0 1 1 0 0 0 1 1 1 1 1 1 1 1 1 1 1 1 1 1 0 0 0 0 0 0 0 0 1 1 1 1 2 1 1 1 2
Wind_Direction
251 263 247 242 248 235 223 221 226 250 256 266 263 260 266 273 273 271 264 257 248 238 229 223 234 252 249 251 253 222 195 196 204 197 189 185 187 200 200 197 198 194 192 194
274 272 265 265 255 241 238 235 238 257 267 266 264 255 260 258 253 258 255 254 253 245 227 224 229 232 243 254 248 220 205 205 204 190 184 187 197 198 190 192 193 192 198 198
271 299 331 271 241 221 227 227 215 237 253 272 275 252 240 237 237 235 242 250 251 246 238 235 234 227 232 243 246 225 212 205 197 188 193 196 186 180 191 194 190 202 214 207
251 38 243 250 239 213 226 248 238 246 264 260 255 261 246 226 223 235 244 245 246 244 251 256 247 238 232 238 228 223 214 207 199 188 189 187 181 191 198 196 194 203 214 213
186 233 271 284 259 202 215 260 239 242 265 273 279 304 276 248 230 233 235 235 236 236 235 241 243 240 235 246 233 222 218 215 205 190 185 187 204 213 203 192 203 206 207 212
191 215 242 256 261 233 152 275 254 237 252 270 251 254 260 257 262 253 241 226 231 240 234 235 241 226 222 236 233 232 224 217 207 188 184 196 209 211 197 195 208 207 213 221
211 232 258 256 252 114 174 253 264 241 245 239 225 235 262 276 269 245 236 238 235 230 236 243 238 210 221 229 236 243 232 207 196 191 190 194 192 195 184 188 193 208 218 235
190 217 250 239 156 193 228 259 263 258 250 244 254 267 275 267 259 250 248 252 242 245 265 264 231 203 220 235 238 231 207 200 199 197 196 180 174 189 185 181 192 213 221 246
199 218 238 198 210 232 228 247 257 256 264 253 261 269 274 267 251 243 245 253 255 240 265 282 253 210 223 243 225 201 195 207 207 198 194 183 182 188 188 188 198 218 219 237
242 258 259 253 256 271 257 250 261 260 261 253 257 263 269 264 256 250 254 258 262 245 254 280 279 243 231 236 207 185 196 212 204 189 200 200 201 199 203 206 210 219 223 231
250 268 285 268 246 251 264 272 279 281 267 253 253 266 265 262 260 251 256 265 245 237 245 262 272 264 246 218 190 193 204 208 208 201 202 210 217 218 220 223 217 220 222 218
232 231 221 247 248 241 251 266 267 276 287 281 258 258 265 264 267 261 258 261 251 255 255 262 267 272 270 229 190 189 207 213 211 209 208 208 218 260 260 245 240 238 236 230
239 252 242 255 265 255 250 259 265 265 265 277 282 257 257 272 276 271 269 258 253 258 260 257 257 269 279 246 201 196 209 217 216 211 209 209 213 220 252 277 249 237 233 234
248 251 260 256 262 267 262 265 268 275 275 270 273 272 272 283 285 277 269 267 264 261 256 251 250 269 278 252 214 212 214 219 218 215 212 213 217 222 224 225 240 267 253 235
257 246 243 255 265 275 272 271 282 287 289 294 277 266 272 274 275 279 282 283 281 267 263 258 263 276 284 250 215 216 215 213 213 212 213 215 216 216 218 220 226 250 271 245
267 269 256 245 253 266 276 274 268 272 275 279 280 278 274 266 268 281 287 273 249 258 269 264 265 273 273 225 214 225 227 221 213 201 199 204 210 215 219 218 222 231 234 233
230 249 250 261 262 267 267 263 253 257 265 267 270 278 284 285 292 293 292 289 262 256 266 266 272 281 267 226 211 220 222 215 212 208 207 209 213 218 220 219 227 238 242 236
229 233 234 236 242 257 269 269 259 260 265 264 265 265 261 253 259 274 289 308 314 307 293 276 274 276 259 239 220 217 208 203 203 204 211 216 218 215 213 214 225 235 249 243
248 246 249 252 245 240 251 258 261 264 270 256 247 255 263 261 254 264 284 298 293 292 297 291 289 286 265 259 243 202 194 194 203 211 210 214 219 214 210 212 224 229 230 229
272 279 282 294 291 260 256 261 264 272 272 250 241 266 281 285 274 272 273 269 261 261 275 288 286 271 266 257 247 193 191 193 197 199 199 201 200 205 207 217 220 225 232 230
287 296 302 298 308 305 282 265 247 265 276 232 216 237 257 279 280 261 252 284 289 278 272 286 292 267 254 244 230 184 183 191 197 195 195 197 193 195 202 213 225 235 239 241
290 296 298 300 303 301 299 289 263 254 258 259 244 234 243 271 288 291 269 251 270 299 306 278 277 269 271 276 142 145 155 168 186 191 191 190 190 195 204 214 225 239 238 230
277 274 273 276 273 279 306 313 283 239 234 238 229 224 231 248 250 251 289 293 277 298 317 274 271 282 316 77 104 120 149 171 192 201 196 196 198 200 204 210 222 230 227 225
267 275 279 290 302 305 310 309 313 296 263 265 258 239 225 261 306 291 267 288 310 318 325 292 302 345 55 75 108 130 158 185 204 203 192 191 192 200 203 204 215 226 225 225
268 277 284 269 261 258 263 295 347 9 19 359 337 331 310 258 254 288 304 292 302 345 350 336 1 12 38 66 117 150 178 201 203 195 186 185 196 207 213 216 222 225 227 228
291 282 270 263 258 256 248 235 262 280 299 350 345 356 10 13 22 332 330 338 347 1 9 4 358 5 31 48 128 174 189 210 208 168 184 203 210 211 213 213 216 225 227 227
10 356 354 355 344 322 284 239 233 262 262 213 326 347 12 23 30 28 24 18 14 9 8 7 3 4 9 42 74 91 110 133 154 175 194 212 219 219 221 219 223 224 225 220